Location: Adrasan
(36.3319°N, 30.4314°E)
Time: 10:17:47
(UTC+00:00)

Meteor 1-10 Rocket - Pass Details

Date: 26 May 2024
Orbit: 834 x 910 km, 81.3° (Epoch: 16 June)

Event Time Altitude Azimuth Distance (km) Brightness Sun altitude
Exits shadow 19:36:39 - 217° (SW) 2,589 6.5 -23.7°
Reaches altitude 10° 19:36:51 10° 218° (SW) 2,519 6.5 -23.7°
Maximum altitude 19:42:05 36° 284° (WNW) 1,328 5.6 -24.3°
Drops below altitude 10° 19:47:16 10° 351° (N) 2,486 7.5 -24.9°
Sets 19:49:53 0° 360° (N) 3,415 8.3 -25.2°
